Location: Autingues
(50.8400°N, 1.9737°E)
Time: 07:23:48
(UTC+00:00)

Cosmos 2333 Rocket - Pass Details

Date: 15 May 2026
Orbit: 841 x 862 km, 70.8° (Epoch: 5 June)

Event Time Altitude Azimuth Distance (km) Brightness Sun altitude
Rises 21:34:21 0° 325° (NW) 3,423 7.4 -14.2°
Reaches altitude 10° 21:36:56 10° 318° (NW) 2,487 6.0 -14.4°
Maximum altitude 21:42:12 40° 251° (WSW) 1,247 3.2 -14.8°
Enters shadow 21:46:30 15° 188° (S) 2,158 3.9 -15.2°
